Simultaneous Nadir Overpasses (SNOs) Predictions

Prediction of SNOs between NOAA-19 and METOP-C Satellite Orbit:

Table of predicted SNOs for the next 14.0 days since TLE Epoch: 5/29/2020
Index Date (NOAA-19) Time (NOAA-19) Lat,Lon (NOAA-19) SZA (NOAA-19 ) Date (METOP-C) Time (METOP-C) Lat,Lon (METOP-C) SZA (METOP-C ) Distance(km) Time Diff (sec)
1 06/05/2020 11:53:05 79.99, 24.08 58.15 06/05/2020 11:54:15 80.00, 23.98 58.18 2.17 70
2 06/05/2020 12:44:02 -79.99,-168.69 121.85 06/05/2020 12:44:56 -80.00,-168.67 121.83 1.19 54
3 06/05/2020 13:35:05 80.00, -1.55 58.15 06/05/2020 13:35:36 79.99, -1.48 58.15 1.90 31
4 06/05/2020 14:26:02 -79.98, 166.00 121.86 06/05/2020 14:26:18 -79.99, 165.87 121.85 2.98 16
5 06/05/2020 15:17:05 79.98, -26.86 58.14 06/05/2020 15:16:58 79.97, -26.94 58.12 1.93 7
6 06/05/2020 16:08:03 -79.99, 140.38 121.87 06/05/2020 16:07:40 -79.98, 140.41 121.88 1.06 23
7 06/05/2020 16:59:05 79.97, -52.18 58.13 06/05/2020 16:58:19 79.99, -52.11 58.14 2.72 46
8 06/05/2020 17:50:03 -79.97, 115.07 121.87 06/05/2020 17:49:02 -79.96, 114.95 121.91 2.51 61




NCC Satellite Simultaneous Nadir Overpasses (SNOs) Prediction Service
